STARLINK-6267, 56400

Orbit data source: Space-Track

STARLINK-6267, 56400 is a payload satellite owned by SpaceX/Seattle (US) in LEO that was launched on Thu, 04 May 2023 UTC via an FALCON 9 launch vehicle from the Air Force Eastern Test Range (AFETR). Payload-class satellites include a variety of spacecraft equipped with specific instruments for various scientific and technological missions. These include communications satellites like Starlink; space stations such as the ISS; scientific satellites like the Hubble; Earth observation satellites from companies like Planet Labs, Umbra, and HawkEye 360; GPS; miniature CubeSats for education and research; and military/defense satellites.

Loading next visibility...
Identifier
56400, 2023-061AC
Orbit
LEO
Last TLE update
2 days ago
Origin
Manufacturer
SpaceX/Seattle
Mission
Operational Commercial Communications
Bus & Motor
STARLINK, Unknown motor
Mass
305 kg wet, ~290 kg dry
Launch date (UTC)
2023-05-04 (2 years ago)
Launch vehicle
FALCON 9
Launch site
Air Force Eastern Test Range (AFETR)
Object type
Payload
Rocket body
Debris
Shape & HBR
Box + 1 Pan, 9 m
Radar Cross Section
11.087 m², Large (>1 m²)

Expand to show TLE details & history

TLE from 2 days ago
0 STARLINK-6267
1 56400U 23061AC  25188.06390989  .00000056  00000-0  19232-4 0  9997
2 56400  43.0050  79.3480 0000965 260.1053  99.9680 15.02532184119954
Epoch: 2025-07-07T01:32Z
TLE epoch observation values (Epoch: 2025-07-07T01:32:01.814Z)
Latitude
-0.00005°
Longitude
131.06177°
Altitude
558.986 km
Speed
7.584 km/s
True Right ascension
05h 17m 23s
True Declination
0° 00' 00"
Sunlit
Object was in daylight at epoch
Visualization orbit readout
Latitude
14.84748°
Longitude
139.14882°
Altitude
558.405 km
Speed
7.585 km/s
Apparent Right ascension
08h 55m 28s
Apparent Declination
-23° 43' 08"
Sunlit
Object is in daylight
Visualization observer readout
Local Sidereal Time
02:26:17
Azimuth
104.446° ESE
Elevation
-20.319°
Doppler factor
1
Orbital elements
Apogee altitude
561.684 km
Perigee altitude
560.345 km
Semi-major axis
6,939.151 km
Eccentricity
0.0001
Inclination
43.005°
RAAN
79.348°
Arg. of periapsis
260.1053°
True anomaly
Unknown
Mean anomaly
99.968°
Eccentric anomaly
Unknown
Mean motion
3.75477 °/min
Orbital period
95.88 mins
BSTAR
0.000019232
Loading maneuver chart data...
Loading SW <> Apogee altitude chart data...
Loading historical data...
Loading historical data...
Loading historical data...
Loading historical data...
Loading historical data...
Loading historical data...
Loading historical data...

STARLINK-6267 Visibility forecast

Observer location: undefined°, undefined°

Span
Click to sort rows by Start time (UTC) header in descending order
Start Az.
Max El. time (UTC)
Max El. Az.
Max El.
End time (UTC)
End Az.
6 mins2025-07-08 19:12:36.690Z201.184° SSW2025-07-08 19:15:36.690Z141.221° SSE26.346°2025-07-08 19:18:36.690Z89.253° E
6 mins2025-07-08 20:53:36.690Z257.499° W2025-07-08 20:55:36.690Z291.15° WNW44.279°2025-07-08 20:59:36.690Z71.261° E
6 mins2025-07-08 22:34:36.690Z293.278° NW2025-07-08 22:36:36.690Z352.216° N39.297°2025-07-08 22:40:36.690Z79.57° E
7 mins2025-07-09 00:14:36.690Z287.457° WNW2025-07-09 00:17:36.690Z205.162° SW44.943°2025-07-09 00:21:36.690Z111.258° ESE
5 mins2025-07-09 01:55:36.690Z258.628° W2025-07-09 01:57:36.690Z223.109° SW21.71°2025-07-09 02:00:36.690Z168.316° S
|